User: anonymous   Login
Location: Dittelbrunn
(50.0738°N, 10.2196°E)
Time: 03:21:59
(UTC+00:00)
Language:

Okean 1 Rocket - Orbit

View from above orbital plane
View from above orbital plane
View from above satellite
View from above satellite

Ground track
Ground track

The orbit data is extracted from the following two-line orbital elements,

1 19275U 88056B   20337.45513652  .00000150  00000-0  15596-4 0  9993
2 19275  82.5175 227.7358 0020231   6.6299 353.5179 14.82767574729516
Epoch (UTC): 02 December 2020 10:55:23
Eccentricity: 0.0020231
inclination: 82.5175°
perigee height: 606 km
apogee height: 635 km
right ascension of ascending node: 227.7358°
argument of perigee: 6.6299°
revolutions per day: 14.82767574
mean anomaly at epoch: 353.5179°
orbit number at epoch: 72951

The dashed part of the orbit path shows where the satellite is in the earth's shadow,  

DLR